Sheppard AFB, TX

8:00 PM CST on February 20, 2017 (GMT -0600)
Sheppard Air Force Base-Wichita Falls Municipal

Weather History for KSPS - February, 2013

Change the Weather History Date:

Monday, February 4, 2013

  Actual Average Record
Temperature  
Mean Temperature 58 °F 44 °F  
Max Temperature 71 °F 56 °F 86 °F (2008)
Min Temperature 45 °F 31 °F 3 °F (1996)
Degree Days  
Heating Degree Days 7 21  
Month to date heating degree days 64 86  
Since 1 July heating degree days 1763 1996  
Growing Degree Days 8 (Base 50)    
Moisture  
Dew Point 39 °F    
Average Humidity 48    
Maximum Humidity 67    
Minimum Humidity 28    
Precipitation  
Precipitation 0.00 in 0.05 in 0.53 in (1955)
Month to date precipitation 0.00 0.18  
Year to date precipitation 0.64 1.32  
Snow  
Snow 0.00 in 0.00 in - ()
Month to date snowfall 0.0 0.1  
Since 1 July snowfall 3.5 2.8  
Snow Depth -    
Sea Level Pressure  
Sea Level Pressure 29.84 in    
Wind  
Wind Speed 11 mph (North)    
Max Wind Speed 17 mph    
Max Gust Speed 21 mph    
Visibility 10 miles    
Events      
T = Trace of Precipitation, MM = Missing Value Source: NWS Daily Summary

Daily Weather History Graph

Daily Weather History Graph

Search for Another Location

Airport or City:

Trip Planner

Search our weather history database for the weather conditions in past years. The results will help you decide how hot, cold, wet, or windy it might be!

Date:

Astronomy

Feb. 04, 2013 Rise Set
Actual Time 7:28 AM CST 6:07 PM CST
Civil Twilight 7:02 AM CST 6:33 PM CST
Nautical Twilight 6:32 AM CST 7:03 PM CST
Astronomical Twilight 6:03 AM CST 7:33 PM CST
Moon 2:02 AM CST (2/4) 12:36 PM CST (2/4)
Length of Visible Light 11h 31m
Length of Day
10h 39m
Last Quarter, 37% of the Moon is Illuminated
Feb 4
Last Quarter
Feb 10
New
Feb 17
First Quarter
Feb 25
Full
Mar 4
Last Quarter

Hourly Weather History & Observations

Time (CST) Temp. Windchill Dew Point Humidity Pressure Visibility Wind Dir Wind Speed Gust Speed Precip Events Conditions
12:52 AM 57.0 °F - 25.0 °F 29% 29.89 in 10.0 mi South 13.8 mph - N/A   Scattered Clouds
1:52 AM 57.0 °F - 28.0 °F 33% 29.86 in 10.0 mi South 13.8 mph - N/A   Overcast
2:52 AM 57.0 °F - 30.9 °F 37% 29.83 in 10.0 mi South 13.8 mph - N/A   Partly Cloudy
4:52 AM 57.2 °F - 39.2 °F 51% 29.83 in 10.0 mi South 10.4 mph - N/A   Mostly Cloudy
5:52 AM 57.0 °F - 41.0 °F 55% 29.81 in 10.0 mi South 11.5 mph - N/A   Mostly Cloudy
6:52 AM 57.0 °F - 43.0 °F 59% 29.80 in 10.0 mi South 12.7 mph - N/A   Mostly Cloudy
7:52 AM 57.0 °F - 44.1 °F 62% 29.81 in 10.0 mi South 12.7 mph - N/A   Overcast
8:52 AM 57.9 °F - 46.0 °F 65% 29.83 in 10.0 mi South 9.2 mph - N/A   Mostly Cloudy
9:52 AM 61.0 °F - 46.9 °F 60% 29.83 in 10.0 mi South 13.8 mph - N/A   Mostly Cloudy
10:52 AM 66.0 °F - 48.0 °F 52% 29.83 in 10.0 mi SW 13.8 mph - N/A   Mostly Cloudy
11:52 AM 66.9 °F - 46.0 °F 47% 29.83 in 10.0 mi NW 5.8 mph - N/A   Mostly Cloudy
12:52 PM 69.1 °F - 46.0 °F 44% 29.82 in 10.0 mi NNE 8.1 mph - N/A   Scattered Clouds
1:52 PM 69.1 °F - 46.9 °F 45% 29.79 in 10.0 mi NE 9.2 mph - N/A   Scattered Clouds
2:52 PM 69.1 °F - 46.9 °F 45% 29.79 in 10.0 mi NNE 8.1 mph - N/A   Partly Cloudy
3:52 PM 71.1 °F - 46.0 °F 41% 29.79 in 10.0 mi NNE 11.5 mph - N/A   Scattered Clouds
4:52 PM 68.0 °F - 44.1 °F 42% 29.81 in 10.0 mi NNE 13.8 mph - N/A   Scattered Clouds
5:52 PM 63.0 °F - 35.1 °F 35% 29.82 in 10.0 mi NNE 11.5 mph - N/A   Partly Cloudy
6:52 PM 55.9 °F - 32.0 °F 40% 29.85 in 10.0 mi North 9.2 mph - N/A   Partly Cloudy
7:52 PM 51.1 °F - 30.9 °F 46% 29.88 in 10.0 mi North 10.4 mph - N/A   Partly Cloudy
8:52 PM 52.0 °F - 30.9 °F 45% 29.90 in 10.0 mi North 10.4 mph - N/A   Clear
9:52 PM 46.9 °F - 30.9 °F 54% 29.91 in 10.0 mi NNW 8.1 mph - N/A   Clear
10:52 PM 46.9 °F - 30.0 °F 52% 29.92 in 10.0 mi NNW 11.5 mph - N/A   Clear
11:52 PM 45.0 °F 40.1 °F 30.0 °F 56% 29.92 in 10.0 mi North 9.2 mph - N/A   Clear